Retour au catalogue

FENGYUN 1C DEB

ActifPO
NORAD 30879·DEBRIS·🇨🇳 China

Lancé May 10, 1999 depuis Taiyuan Satellite Launch Center

Loading…

Prochains Passages (prochaines 24 heures)

TLE

FraisSource: Space-Track

Époque: Sep 14, 2026, 12:22 UTC

1 30879U 99025AXR 26257.51579373  .00010088  00000-0  10487-2 0  9993
2 30879  99.3303 161.4783 0164549 147.1488 214.0079 14.80593044660045

Suivez FENGYUN 1C DEB en temps réel avec AllMySat

Download on the App Store